Simultaneous Nadir Overpasses (SNOs) Predictions

Prediction of SNOs between METOP-B and NOAA-19 Satellite Orbit:

Table of predicted SNOs for the next 14.0 days since TLE Epoch: 7/16/2022
Index Date (METOP-B) Time (METOP-B) Lat,Lon (METOP-B) SZA (METOP-B ) Date (NOAA-19) Time (NOAA-19) Lat,Lon (NOAA-19) SZA (NOAA-19 ) Distance(km) Time Diff (sec)
1 07/18/2022 12:47:53 80.85, 21.42 61.31 07/18/2022 12:46:44 80.87, 21.47 61.30 1.50 69
2 07/18/2022 13:38:34 -80.86,-171.16 118.67 07/18/2022 13:37:42 -80.86,-170.99 118.68 2.99 52
3 07/18/2022 14:29:14 80.87, -3.72 61.35 07/18/2022 14:28:43 80.86, -3.72 61.34 0.50 31
4 07/18/2022 15:19:56 -80.85, 163.34 118.68 07/18/2022 15:19:42 -80.86, 163.45 118.67 2.26 14
5 07/18/2022 16:10:36 80.86, -29.22 61.34 07/18/2022 16:10:43 80.86, -29.28 61.34 1.26 7
6 07/18/2022 17:01:17 -80.86, 138.21 118.64 07/18/2022 17:01:41 -80.86, 138.27 118.63 1.26 24
7 07/18/2022 17:51:57 80.87, -54.35 61.38 07/18/2022 17:52:42 80.86, -54.47 61.38 2.36 45
8 07/18/2022 18:42:39 -80.85, 112.71 118.65 07/18/2022 18:43:41 -80.86, 112.72 118.62 0.46 62
9 07/29/2022 19:05:17 80.87, -72.62 63.70 07/29/2022 19:04:11 80.87, -72.74 63.66 2.13 66
10 07/29/2022 19:55:59 -80.86, 94.48 116.33 07/29/2022 19:55:13 -80.87, 94.48 116.34 0.98 46
11 07/29/2022 20:46:39 80.86, -98.12 63.69 07/29/2022 20:46:10 80.86, -97.93 63.70 3.26 29
12 07/29/2022 21:37:20 -80.87, 69.34 116.29 07/29/2022 21:37:12 -80.86, 69.29 116.30 1.20 8
13 07/29/2022 22:28:01 80.85,-123.62 63.69 07/29/2022 22:28:10 80.87,-123.50 63.71 2.33 9
14 07/29/2022 23:18:42 -80.86, 43.85 116.29 07/29/2022 23:19:12 -80.87, 43.73 116.29 2.14 30
15 07/30/2022 00:09:22 80.87,-148.76 63.73 07/30/2022 00:10:09 80.86,-148.69 63.75 1.21 47



Historial Predications of SNOs between METOP-B and NOAA-19
